DHK1812 HAAB-WSSS

Flight info

Callsign DHK1812
Flight time N/A
Altitude 33000
Route NIDEG1A NIDEG UB535 TORBA T701 ULALI P751 RIGAM/N0489F350 P751 BBB/N0484F370 Q13 BEKUT N571 LAGOG/N0476F390 N571 GUNIP M630 NIREN Y511 TOPOR A464 ARAMA DCT TEBUN TEBUN1A
Aircraft A333/H-SDE3GHIJ2J3J5M1RVWXY/LB2D1

Departure

Time N/A
Airport Addis Ababa Bole International Airport (HAAB)

Arrival

Time 2026-05-04 20:48
Airport Singapore Changi Airport (WSSS)
Time Latitude Longitude Altitude Speed Heading
2026-05-04 20:09 2.42931 101.97299 32338 ft 472 kts 126°
2026-05-04 20:09 2.40944 101.99921 32585 ft 472 kts 126°
2026-05-04 20:09 2.38966 102.02536 32812 ft 472 kts 126°
2026-05-04 20:10 2.36980 102.05166 32862 ft 476 kts 126°
2026-05-04 20:10 2.32968 102.10487 32858 ft 481 kts 126°
2026-05-04 20:11 2.28950 102.15822 32859 ft 480 kts 126°
2026-05-04 20:11 2.24931 102.21156 32883 ft 480 kts 126°
2026-05-04 20:12 2.20913 102.26489 32857 ft 481 kts 126°
2026-05-04 20:12 2.16885 102.31834 32857 ft 481 kts 126°
2026-05-04 20:13 2.12859 102.37175 32859 ft 481 kts 126°
2026-05-04 20:13 2.08860 102.42479 32864 ft 481 kts 126°
2026-05-04 20:14 2.04834 102.47821 32865 ft 481 kts 126°
2026-05-04 20:14 2.00809 102.53160 32864 ft 481 kts 126°
2026-05-04 20:15 1.96787 102.58500 32864 ft 481 kts 126°
2026-05-04 20:15 1.92767 102.63838 32650 ft 479 kts 126°
2026-05-04 20:15 1.90755 102.66508 31978 ft 481 kts 126°
2026-05-04 20:16 1.88747 102.69174 31404 ft 479 kts 126°
2026-05-04 20:16 1.86743 102.71834 30808 ft 479 kts 126°
2026-05-04 20:16 1.84735 102.74499 30184 ft 479 kts 126°
2026-05-04 20:16 1.82730 102.77159 29469 ft 480 kts 126°
2026-05-04 20:17 1.81400 102.78925 28916 ft 481 kts 126°
2026-05-04 20:17 1.79384 102.81600 28147 ft 482 kts 126°
2026-05-04 20:17 1.76725 102.85129 27370 ft 478 kts 126°
2026-05-04 20:17 1.74739 102.87776 26817 ft 474 kts 124°
2026-05-04 20:18 1.73032 102.90573 26271 ft 469 kts 120°
2026-05-04 20:18 1.71416 102.93390 25736 ft 465 kts 118°
2026-05-04 20:18 1.70365 102.95299 25380 ft 463 kts 118°
2026-05-04 20:18 1.68849 102.98122 25012 ft 458 kts 117°
2026-05-04 20:19 1.67363 103.00929 24889 ft 458 kts 117°
2026-05-04 20:19 1.65876 103.03752 24871 ft 459 kts 117°
2026-05-04 20:19 1.64388 103.06572 24870 ft 459 kts 117°
2026-05-04 20:19 1.62797 103.09290 24868 ft 460 kts 125°
2026-05-04 20:20 1.60634 103.11638 24871 ft 461 kts 140°
2026-05-04 20:20 1.57915 103.13336 24872 ft 463 kts 153°
2026-05-04 20:20 1.54953 103.14628 24870 ft 464 kts 156°
2026-05-04 20:20 1.51960 103.15826 24870 ft 464 kts 157°
2026-05-04 20:21 1.48952 103.17016 24835 ft 466 kts 157°
2026-05-04 20:21 1.45943 103.18206 24703 ft 461 kts 157°
2026-05-04 20:21 1.40181 103.20491 24734 ft 429 kts 157°
2026-05-04 20:22 1.37462 103.21571 24748 ft 412 kts 156°
2026-05-04 20:22 1.34869 103.22601 24750 ft 389 kts 156°
2026-05-04 20:22 1.32428 103.23571 24756 ft 367 kts 156°
2026-05-04 20:22 1.30125 103.24486 24762 ft 346 kts 156°
2026-05-04 20:23 1.27974 103.25342 24776 ft 331 kts 156°
2026-05-04 20:23 1.25852 103.26190 24494 ft 329 kts 155°
2026-05-04 20:23 1.23761 103.27216 23851 ft 339 kts 149°
2026-05-04 20:23 1.21673 103.28402 23124 ft 351 kts 148°
2026-05-04 20:24 1.19533 103.29649 22448 ft 359 kts 148°
2026-05-04 20:24 1.17368 103.30910 21983 ft 360 kts 148°
2026-05-04 20:24 1.15211 103.32162 21627 ft 358 kts 148°
2026-05-04 20:24 1.13066 103.33405 21190 ft 354 kts 148°
2026-05-04 20:25 1.10950 103.34630 20560 ft 350 kts 148°
2026-05-04 20:25 1.08870 103.35834 20299 ft 336 kts 148°
2026-05-04 20:25 1.06914 103.36963 20277 ft 315 kts 148°
2026-05-04 20:25 1.05093 103.38013 20295 ft 289 kts 148°
2026-05-04 20:26 1.03410 103.38985 20106 ft 274 kts 148°
2026-05-04 20:26 1.01745 103.39951 19357 ft 282 kts 148°
2026-05-04 20:26 1.00020 103.40952 18550 ft 290 kts 148°
2026-05-04 20:26 0.98394 103.42140 17858 ft 289 kts 130°
2026-05-04 20:27 0.97492 103.43882 17148 ft 284 kts 102°
2026-05-04 20:27 0.97225 103.45830 16507 ft 281 kts 94°
2026-05-04 20:27 0.97087 103.47772 15883 ft 279 kts 94°
2026-05-04 20:27 0.96959 103.49698 15291 ft 277 kts 94°
2026-05-04 20:28 0.96824 103.51610 14709 ft 275 kts 94°
2026-05-04 20:28 0.96683 103.53505 14139 ft 272 kts 94°
2026-05-04 20:28 0.96538 103.55386 13563 ft 271 kts 94°
2026-05-04 20:28 0.96500 103.57260 12914 ft 269 kts 86°
2026-05-04 20:29 0.96701 103.59114 12299 ft 268 kts 82°
2026-05-04 20:29 0.96958 103.60950 11699 ft 266 kts 82°
2026-05-04 20:29 0.97220 103.62773 11185 ft 264 kts 82°
2026-05-04 20:29 0.97478 103.64584 10965 ft 264 kts 82°
2026-05-04 20:30 0.97737 103.66415 10922 ft 265 kts 82°
2026-05-04 20:30 0.97989 103.68211 10921 ft 264 kts 82°
2026-05-04 20:30 0.98244 103.70028 10923 ft 264 kts 82°
2026-05-04 20:30 0.98497 103.71840 10923 ft 263 kts 82°
2026-05-04 20:31 0.98751 103.73652 10924 ft 264 kts 82°
2026-05-04 20:31 0.99005 103.75466 10922 ft 263 kts 82°
2026-05-04 20:31 0.99258 103.77277 10921 ft 263 kts 82°
2026-05-04 20:31 0.99511 103.79089 10922 ft 263 kts 82°
2026-05-04 20:32 0.99765 103.80905 10920 ft 263 kts 82°
2026-05-04 20:32 1.00018 103.82716 10921 ft 263 kts 82°
2026-05-04 20:32 1.00267 103.84530 10922 ft 263 kts 83°
2026-05-04 20:32 1.00507 103.86343 10923 ft 264 kts 83°
2026-05-04 20:33 1.00747 103.88162 10923 ft 264 kts 83°
2026-05-04 20:33 1.00986 103.89980 10922 ft 264 kts 83°
2026-05-04 20:33 1.01225 103.91796 10923 ft 264 kts 83°
2026-05-04 20:33 1.01465 103.93616 10925 ft 264 kts 83°
2026-05-04 20:34 1.01706 103.95434 10926 ft 264 kts 82°
2026-05-04 20:34 1.02215 103.97188 10923 ft 264 kts 63°
2026-05-04 20:34 1.03185 103.98747 10924 ft 264 kts 55°
2026-05-04 20:34 1.04262 104.00240 10799 ft 265 kts 54°
2026-05-04 20:35 1.05367 104.01745 10326 ft 270 kts 54°
2026-05-04 20:35 1.06470 104.03252 9955 ft 268 kts 54°
2026-05-04 20:35 1.07567 104.04760 9529 ft 268 kts 54°
2026-05-04 20:35 1.08643 104.06243 9153 ft 266 kts 54°
2026-05-04 20:36 1.09721 104.07734 8765 ft 264 kts 54°
2026-05-04 20:36 1.10798 104.09224 8358 ft 264 kts 54°
2026-05-04 20:36 1.11866 104.10703 8006 ft 261 kts 54°
2026-05-04 20:36 1.12931 104.12169 7619 ft 260 kts 52°
2026-05-04 20:37 1.14229 104.13411 7249 ft 260 kts 34°
2026-05-04 20:37 1.15755 104.14456 6862 ft 269 kts 30°
2026-05-04 20:37 1.17449 104.15280 6484 ft 272 kts 23°
2026-05-04 20:37 1.19198 104.16007 6122 ft 271 kts 21°
2026-05-04 20:38 1.20947 104.16707 5734 ft 270 kts 21°
2026-05-04 20:38 1.22693 104.17397 5360 ft 269 kts 21°
2026-05-04 20:38 1.24430 104.18081 4969 ft 267 kts 21°
2026-05-04 20:38 1.26145 104.18758 4780 ft 264 kts 21°
2026-05-04 20:39 1.27864 104.19437 4661 ft 270 kts 21°
2026-05-04 20:39 1.29641 104.20137 4492 ft 276 kts 21°
2026-05-04 20:39 1.31427 104.20826 4366 ft 274 kts 18°
2026-05-04 20:39 1.33287 104.21135 4242 ft 271 kts 356°
2026-05-04 20:40 1.35150 104.20883 4123 ft 271 kts 348°
2026-05-04 20:40 1.36997 104.20491 4005 ft 271 kts 347°
2026-05-04 20:40 1.38832 104.20080 3883 ft 269 kts 347°
2026-05-04 20:40 1.40625 104.19682 3763 ft 259 kts 347°
2026-05-04 20:41 1.42355 104.19303 3659 ft 250 kts 347°
2026-05-04 20:41 1.44026 104.18940 3534 ft 241 kts 347°
2026-05-04 20:41 1.45643 104.18590 3419 ft 236 kts 347°
2026-05-04 20:41 1.47243 104.18245 3300 ft 235 kts 347°
2026-05-04 20:42 1.48845 104.17901 3160 ft 235 kts 347°
2026-05-04 20:42 1.50428 104.17495 2964 ft 234 kts 338°
2026-05-04 20:42 1.51750 104.16588 2786 ft 232 kts 308°
2026-05-04 20:42 1.52404 104.15142 2659 ft 231 kts 280°
2026-05-04 20:43 1.52573 104.13605 2611 ft 219 kts 274°
2026-05-04 20:43 1.52650 104.12130 2544 ft 206 kts 272°
2026-05-04 20:43 1.52718 104.10720 2427 ft 196 kts 273°
2026-05-04 20:43 1.52789 104.09392 2227 ft 192 kts 273°
2026-05-04 20:44 1.52865 104.08058 2079 ft 192 kts 273°
2026-05-04 20:44 1.52811 104.06725 1988 ft 192 kts 258°
2026-05-04 20:44 1.52282 104.05512 1927 ft 192 kts 232°
2026-05-04 20:44 1.51280 104.04656 1920 ft 191 kts 209°
2026-05-04 20:45 1.50078 104.04090 1917 ft 191 kts 202°
2026-05-04 20:45 1.48847 104.03587 1915 ft 191 kts 201°
2026-05-04 20:45 1.47613 104.03086 1895 ft 191 kts 201°
2026-05-04 20:45 1.46384 104.02581 1743 ft 191 kts 201°
2026-05-04 20:46 1.45155 104.02070 1473 ft 191 kts 202°
2026-05-04 20:46 1.43938 104.01560 1225 ft 186 kts 202°
2026-05-04 20:46 1.42772 104.01070 970 ft 177 kts 202°
2026-05-04 20:46 1.41669 104.00608 749 ft 167 kts 202°
2026-05-04 20:47 1.40626 104.00154 472 ft 161 kts 204°
2026-05-04 20:47 1.39625 103.99720 319 ft 152 kts 205°
2026-05-04 20:47 1.38674 103.99323 209 ft 146 kts 203°
2026-05-04 20:47 1.37731 103.98938 63 ft 147 kts 203°
2026-05-04 20:48 1.36846 103.98564 32 ft 117 kts 202°
2026-05-04 20:48 1.36269 103.98327 32 ft 60 kts 200°
2026-05-04 20:48 1.36041 103.98281 31 ft 27 kts 179°
2026-05-04 20:48 1.35867 103.98301 31 ft 12 kts 173°
2026-05-04 20:49 1.35818 103.98304 31 ft 0 kts 178°
2026-05-04 20:49 1.35812 103.98304 31 ft 2 kts 178°
2026-05-04 20:49 1.35797 103.98304 30 ft 3 kts 180°
2026-05-04 20:49 1.35772 103.98306 30 ft 4 kts 172°
2026-05-04 20:50 1.35740 103.98317 30 ft 5 kts 149°
2026-05-04 20:50 1.35720 103.98350 29 ft 6 kts 103°
2026-05-04 20:50 1.35735 103.98384 29 ft 5 kts 44°
2026-05-04 20:50 1.35768 103.98403 29 ft 6 kts 26°
2026-05-04 20:51 1.35808 103.98422 29 ft 7 kts 25°
2026-05-04 20:51 1.35852 103.98440 29 ft 7 kts 22°
2026-05-04 20:51 1.35900 103.98460 29 ft 9 kts 22°
2026-05-04 20:51 1.35971 103.98489 29 ft 13 kts 22°
2026-05-04 20:52 1.36068 103.98529 29 ft 17 kts 22°
2026-05-04 20:52 1.36189 103.98580 29 ft 21 kts 22°
2026-05-04 20:52 1.36331 103.98637 29 ft 24 kts 24°
2026-05-04 20:52 1.36489 103.98710 29 ft 26 kts 25°
2026-05-04 20:53 1.36660 103.98785 29 ft 27 kts 22°
2026-05-04 20:53 1.36830 103.98855 29 ft 26 kts 22°
2026-05-04 20:53 1.36982 103.98919 29 ft 18 kts 22°
2026-05-04 20:53 1.37073 103.98992 29 ft 17 kts 65°
2026-05-04 20:54 1.37160 103.99062 29 ft 16 kts 24°
2026-05-04 20:54 1.37266 103.99108 29 ft 17 kts 22°
2026-05-04 20:54 1.37373 103.99151 29 ft 17 kts 22°
2026-05-04 20:54 1.37441 103.99193 29 ft 8 kts 61°
2026-05-04 20:55 1.37430 103.99256 29 ft 10 kts 109°
2026-05-04 20:55 1.37419 103.99285 28 ft 1 kts 112°
2026-05-04 20:55 1.37416 103.99291 28 ft 0 kts 114°